Location: Newark
(49.4642°N, 2.1122°E)
Time: 01:07:59
(UTC+00:00)

N. Korean satellite - Visible Passes

Search period start: 29 March 2020 00:00
Search period end: 08 April 2020 00:00
Orbit: 455 x 506 km, 97.2° (Epoch: 28 March)

Date Brightness Start Highest point End Pass type
(mag) Time Alt. Az. Time Alt. Az. Time Alt. Az.
29 Mar 9.4 04:56:23 10° NE 04:59:09 22° E 05:01:52 10° SE visible
30 Mar 10.0 04:32:04 10° ENE 04:33:18 12° E 04:34:33 10° ESE visible
02 Apr 9.6 04:47:38 10° NE 04:50:01 17° E 04:52:23 10° SE visible
06 Apr 9.8 04:38:58 10° ENE 04:40:51 14° E 04:42:44 10° ESE visible
